[[{"header":{"parameterUnit":"m.s-1","parameterCategory":2,"la1":30.2991,"la2":30.254,"lo1":-89.0895,"lo2":-89.0444,"dy":0.0017,"dx":0.0017,"nx":28,"ny":28,"refTime":"2023-04-17T21:00:00:Z","depth":"0","parameterNumber":2,"parameterNumberName":"U-component_of_CURRENTS"},"data":[0,0,0,0,0,0,0,0,0,0,0,0,0,0,0,0,0,0,0,0,0,0,0,0,0,0,0,0,0,0,0,0,0,0,0,0,0,0,0,0,0,0,0,0,0,0,0,0,0,0,0,0,0,0,0,0,0,0,0.3497,0.3496,0,0.3388,0.3387,0.3385,0.3316,0.3316,0.3316,0.3316,0.3334,0.3334,0.3335,0,0,0,0,0,0,0,0,0,0,0,0,0,0.3535,0.3535,0.3497,0.3496,0.3495,0.3389,0.3387,0.3385,0.3316,0.3316,0.3316,0.3316,0.3334,0.3334,0.3335,0,0,0,0,0,0,0,0,0,0,0,0,0,0.3477,0.3535,0.3497,0.3452,0.3447,0.3389,0.3387,0.3384,0.3316,0.3316,0.3316,0.3316,0.3334,0.3334,0.3335,0.3338,0,0,0.3337,0.3337,0,0,0,0,0,0,0,0,0.3481,0.3475,0.3459,0.3455,0.3449,0.337,0.3406,0.3377,0.3316,0.3361,0.3316,0.3316,0.3361,0.3359,0.333,0.3339,0.334,0.3337,0.3337,0.3338,0.3338,0,0,0,0,0,0,0,0.3485,0.3479,0.3449,0.3459,0.3452,0.3399,0.3391,0.3399,0.3361,0.3357,0.3353,0.3348,0.3358,0.3329,0.3331,0.334,0.3337,0.3338,0.3338,0.3338,0.3497,0.3501,0,0,0,0,0,0,0.3514,0.3484,0.3453,0.3447,0.3471,0.3399,0.339,0.3392,0.3358,0.3353,0.3348,0.3346,0.3328,0.333,0.3331,0.3402,0.3338,0.3338,0.3339,0.3493,0.3498,0.3502,0,0,0,0,0,0,0.3515,0.3512,0.3457,0.3466,0.3456,0.34,0.3401,0.339,0.3369,0.3351,0.3347,0.3341,0.3328,0.333,0.3345,0.34,0.3339,0.3339,0.3489,0.3495,0.35,0.35,0,0,0,0,0,0,0.3517,0.3513,0.3518,0.3468,0.3457,0.3433,0.3401,0.3388,0.3368,0.3363,0.3344,0.3344,0.3329,0.3344,0.3346,0.34,0.334,0.3484,0.3491,0.3498,0.3495,0.3505,0.3514,0,0,0,0,0,0.3518,0.3527,0.3519,0.3515,0.3467,0.3434,0.3422,0.3378,0.3368,0.336,0.3349,0.3345,0.3394,0.3345,0.3347,0.3403,0.348,0.3489,0.3498,0.3491,0.3503,0.3514,0,0,0,0,0,0,0.3531,0.352,0.351,0.3511,0.3482,0.3424,0.3413,0.3389,0.3368,0.337,0.3353,0.3353,0.3404,0.3411,0.3358,0.3483,0.3454,0.3463,0.345,0.3461,0.347,0.3474,0.334,0,0,0,0,0,0.3543,0.3556,0.3524,0.3524,0.3515,0.3468,0.3449,0.3422,0.3399,0.3387,0.3364,0.3387,0.3441,0.345,0.3479,0.3514,0.3555,0.3572,0.3581,0.3588,0.3601,0.3732,0.3753,0.353,0.353,0.353,0,0,0.3547,0.3544,0.3549,0.353,0.3503,0.3483,0.3455,0.3434,0.3419,0.3399,0.3371,0.3407,0.3462,0.3507,0.3536,0.3513,0.3669,0.3599,0.3604,0.3613,0.3743,0.3764,0.3783,0.3536,0.3535,0.3534,0,0,0.3559,0.3562,0.3572,0.3554,0.3529,0.3501,0.3504,0.3448,0.343,0.342,0.3435,0.3494,0.3514,0.3568,0.3608,0.3694,0.3718,0.3728,0.3758,0.3885,0.3903,0.392,0.3961,0.3981,0.3724,0.3724,0.3724,0,0.3563,0.3565,0.3565,0.356,0.3544,0.3517,0.3503,0.3484,0.3435,0.3448,0.3423,0.3528,0.3556,0.3672,0.3703,0.3713,0.3762,0.3694,0.3893,0.3911,0.3928,0.3966,0.3988,0.3725,0.3725,0.3725,0.3725,0,0.3574,0.3568,0.3571,0.3564,0.3551,0.3534,0.3514,0.3505,0.349,0.3482,0.3564,0.3598,0.3672,0.3713,0.3725,0.3882,0.3867,0.3887,0.3848,0.3949,0.3984,0.4007,0.3727,0.3727,0.3726,0.3726,0,0,0.359,0.358,0.3578,0.3562,0.3547,0.3529,0.3544,0.3549,0.3563,0.357,0.3609,0.3727,0.3755,0.3808,0.3851,0.3953,0.4095,0.3968,0.3974,0.3977,0.4327,0.4206,0.4219,0.4154,0.4159,0.4163,0.4285,0,0.3587,0.3574,0.3577,0.3551,0.3533,0.3535,0.3542,0.3559,0.3571,0.3594,0.3698,0.3747,0.3791,0.3824,0.3951,0.4058,0.4166,0.4057,0.4257,0.4261,0.4118,0.4247,0.4083,0.417,0.4308,0.4311,0.4314,0,0.3589,0.3576,0.3552,0.3534,0.3529,0.3513,0.3532,0.3532,0.3603,0.3625,0.3728,0.3777,0.3929,0.394,0.4206,0.4135,0.4248,0.4326,0.4333,0.4242,0.4187,0.4106,0.4207,0.4011,0.435,0.4347,0.4345,0,0.3579,0.3557,0.3533,0.3522,0.3505,0.3504,0.3495,0.3543,0.3544,0.3632,0.365,0.3841,0.3893,0.4113,0.4254,0.4259,0.451,0.4535,0.4534,0.4523,0.4433,0.4405,0.4346,0.4757,0.4757,0.4756,0.4756,0,0.3567,0.3547,0.3515,0.3495,0.3459,0.347,0.3451,0.3479,0.3523,0.3531,0.3651,0.3692,0.3947,0.4091,0.4272,0.4445,0.4539,0.4565,0.4576,0.4422,0.4394,0.4257,0.4162,0.4761,0.476,0.4759,0.4758,0,0.3553,0.354,0.3495,0.3462,0.3442,0.341,0.3373,0.3371,0.3421,0.3435,0.3457,0.3602,0.3785,0.3999,0.4299,0.4413,0.4461,0.4653,0.4398,0.4377,0.4192,0.4103,0.3905,0.3868,0.4704,0.4702,0.4701,0,0.3547,0.352,0.3448,0.3399,0.3368,0.3319,0.3285,0.331,0.3305,0.3369,0.3375,0.3521,0.3621,0.3958,0.4206,0.4481,0.4349,0.444,0.4446,0.4169,0.4082,0.385,0.3821,0.4317,0.4312,0.4309,0.4306,0,0.3514,0.3482,0.3434,0.3327,0.3261,0.3197,0.315,0.3134,0.3169,0.3192,0.3227,0.3304,0.3583,0.3757,0.4055,0.4235,0.4143,0.437,0.4198,0.3868,0.3506,0.3477,0.418,0.4272,0.4276,0.4278,0.428,0.4281,0.3476,0.3417,0.3333,0.3229,0.3152,0.3064,0.2992,0.2988,0.2965,0.2962,0.307,0.3121,0.3341,0.3754,0.3901,0.3931,0.3948,0.3855,0.3799,0.3609,0.3475,0.4046,0.4074,0.4076,0.4078,0.4079,0.4081,0,0.3399,0.3328,0.3235,0.3087,0.2971,0.2967,0.2889,0.2826,0.2778,0.282,0.2843,0.2922,0.307,0.3282,0.3419,0.3342,0.3324,0.3228,0.2899,0.2945,0.3571,0.3454,0.3207,0.3207,0.3207,0.3207,0.3208,0.3208,0.335,0.3227,0.3164,0.2936,0.284,0.2679,0.2623,0.2571,0.2575,0.2507,0.2485,0.2543,0.2597,0.2621,0.2608,0.2672,0.2505,0.2314,0.2388,0.2816,0.287,0.2921,0.2789,0.2406,0.2405,0.1676,0.1669,0.1665]},{"header":{"parameterUnit":"m.s-1","parameterCategory":2,"la1":30.2991,"la2":30.254,"lo1":-89.0895,"lo2":-89.0444,"dy":0.0017,"dx":0.0017,"nx":28,"ny":28,"refTime":"2023-04-17T21:00:00:Z","depth":"0","parameterNumber":3,"parameterNumberName":"V-component_of_CURRENTS"},"data":[0,0,0,0,0,0,0,0,0,0,0,0,0,0,0,0,0,0,0,0,0,0,0,0,0,0,0,0,0,0,0,0,0,0,0,0,0,0,0,0,0,0,0,0,0,0,0,0,0,0,0,0,0,0,0,0,0,0,0.0864,0.0862,0,0.0739,0.0738,0.0737,0.0694,0.0695,0.0695,0.0695,0.072,0.072,0.0721,0,0,0,0,0,0,0,0,0,0,0,0,0,0.1107,0.1102,0.0864,0.0862,0.086,0.074,0.0738,0.0737,0.0694,0.0695,0.0695,0.0695,0.072,0.072,0.0721,0,0,0,0,0,0,0,0,0,0,0,0,0,0.0996,0.1101,0.0864,0.0822,0.0817,0.074,0.0738,0.0736,0.0694,0.0695,0.0695,0.0695,0.0719,0.072,0.0721,0.0718,0,0,0.0723,0.0723,0,0,0,0,0,0,0,0,0.1002,0.0988,0.083,0.0825,0.0819,0.073,0.0832,0.0737,0.0694,0.0744,0.0695,0.0695,0.0735,0.0734,0.0712,0.0719,0.072,0.0723,0.0723,0.0724,0.0724,0,0,0,0,0,0,0,0.101,0.0993,0.0818,0.0828,0.0821,0.0824,0.0809,0.0814,0.0744,0.074,0.0735,0.0717,0.0733,0.0711,0.0713,0.0721,0.0723,0.0723,0.0724,0.0724,0.0884,0.0888,0,0,0,0,0,0,0.1016,0.0999,0.0821,0.0813,0.091,0.0819,0.0802,0.0761,0.0741,0.0736,0.0717,0.0715,0.071,0.0712,0.0714,0.0825,0.0724,0.0724,0.0725,0.088,0.0885,0.0889,0,0,0,0,0,0,0.1021,0.1,0.0826,0.0904,0.0881,0.0814,0.0768,0.0758,0.0738,0.0721,0.072,0.0708,0.071,0.0713,0.0741,0.0822,0.0724,0.0725,0.0876,0.0882,0.0887,0.0975,0,0,0,0,0,0,0.1029,0.1003,0.0982,0.0903,0.0877,0.079,0.0767,0.0755,0.0725,0.0722,0.0713,0.0715,0.0711,0.0741,0.0742,0.0821,0.0726,0.0871,0.0878,0.0885,0.0967,0.0983,0.0997,0,0,0,0,0,0.1037,0.0999,0.0981,0.096,0.0847,0.0789,0.0777,0.0734,0.0724,0.0718,0.0726,0.0715,0.079,0.0742,0.0744,0.0825,0.0867,0.0876,0.0885,0.0961,0.098,0.0996,0,0,0,0,0,0,0.1089,0.0988,0.0967,0.0899,0.0856,0.0781,0.0763,0.0737,0.0731,0.0737,0.0731,0.0734,0.0802,0.0798,0.0746,0.09,0.0841,0.085,0.0899,0.0917,0.0931,0.0947,0.0726,0,0,0,0,0,0.1091,0.1039,0.096,0.0912,0.0889,0.0831,0.0804,0.0775,0.0752,0.0747,0.0744,0.0776,0.0837,0.0859,0.0889,0.0945,0.0925,0.1013,0.1028,0.104,0.1059,0.1086,0.1104,0.0918,0.0917,0.0917,0,0,0.11,0.1038,0.1009,0.0922,0.0883,0.0869,0.0816,0.0774,0.0797,0.0756,0.079,0.0811,0.0862,0.0941,0.0974,0.0947,0.1082,0.1051,0.1061,0.1073,0.1097,0.1114,0.113,0.0923,0.0922,0.0921,0,0,0.1101,0.1036,0.1004,0.0973,0.0912,0.0888,0.0882,0.0818,0.0826,0.0847,0.0864,0.093,0.0966,0.1043,0.1088,0.1203,0.1153,0.1222,0.131,0.1336,0.135,0.1363,0.1341,0.1351,0.1234,0.1235,0.1235,0,0.1119,0.1063,0.0993,0.097,0.0965,0.0907,0.0911,0.091,0.0875,0.0919,0.0876,0.1009,0.1034,0.1197,0.1244,0.124,0.1212,0.123,0.1351,0.1363,0.1375,0.1349,0.1359,0.124,0.1239,0.1239,0.1238,0,0.1101,0.1075,0.1058,0.1022,0.1015,0.0998,0.0994,0.1012,0.1015,0.1028,0.1145,0.1171,0.1261,0.13,0.1303,0.1439,0.1377,0.1354,0.1293,0.1398,0.1365,0.1373,0.1248,0.1246,0.1244,0.1243,0,0,0.1095,0.1055,0.1053,0.1072,0.1044,0.1041,0.1107,0.1161,0.1231,0.1235,0.1339,0.1455,0.1454,0.1509,0.1533,0.1565,0.1614,0.1493,0.1491,0.1448,0.1623,0.1548,0.1548,0.1589,0.1591,0.1594,0.1558,0,0.1111,0.1103,0.1086,0.1129,0.1135,0.1149,0.1223,0.1279,0.1323,0.1403,0.1482,0.1568,0.1543,0.1585,0.1626,0.1628,0.1643,0.1623,0.155,0.1548,0.145,0.156,0.1589,0.1559,0.1566,0.1567,0.1568,0,0.11,0.1105,0.1137,0.1207,0.1216,0.1248,0.1375,0.1427,0.1547,0.1584,0.1683,0.1705,0.1819,0.1739,0.1793,0.1768,0.1709,0.1679,0.1676,0.1585,0.149,0.1464,0.1572,0.1477,0.158,0.1579,0.1579,0,0.1127,0.1153,0.1195,0.1205,0.1263,0.1324,0.1375,0.1488,0.156,0.1688,0.1735,0.1853,0.1894,0.188,0.1834,0.1803,0.1832,0.1781,0.1657,0.1648,0.1654,0.1641,0.1649,0.1792,0.1792,0.1792,0.1792,0,0.1139,0.1174,0.121,0.1226,0.1318,0.1355,0.147,0.1543,0.1655,0.1753,0.1815,0.1902,0.192,0.1938,0.1876,0.1805,0.1867,0.1696,0.1657,0.1683,0.1674,0.1572,0.1528,0.1791,0.1791,0.1791,0.1791,0,0.1139,0.1157,0.1208,0.1284,0.1315,0.1377,0.1484,0.1573,0.1663,0.1786,0.1823,0.1939,0.1973,0.1962,0.1942,0.1846,0.175,0.1733,0.1739,0.1701,0.1473,0.1433,0.1441,0.1419,0.1596,0.1594,0.1593,0,0.1127,0.1147,0.1229,0.1269,0.1296,0.1385,0.1457,0.1565,0.165,0.181,0.1874,0.1951,0.2037,0.1985,0.1882,0.178,0.1708,0.1655,0.162,0.1491,0.1418,0.142,0.1402,0.1653,0.1652,0.1651,0.1651,0,0.1113,0.1141,0.1185,0.1261,0.1331,0.1429,0.1529,0.1594,0.1732,0.1833,0.1968,0.2049,0.2036,0.2009,0.1859,0.176,0.1623,0.163,0.1536,0.1507,0.148,0.1428,0.1599,0.1644,0.1645,0.1645,0.1646,0.1646,0.1096,0.1128,0.1186,0.1268,0.1354,0.1474,0.1557,0.1667,0.1803,0.1986,0.2039,0.2188,0.2144,0.1986,0.1809,0.1519,0.155,0.1419,0.139,0.1409,0.1382,0.1504,0.1475,0.1474,0.1474,0.1474,0.1474,0,0.1075,0.1128,0.1196,0.1307,0.1408,0.1463,0.1617,0.1715,0.1866,0.205,0.2183,0.2306,0.2147,0.1955,0.1598,0.1349,0.1311,0.1222,0.1263,0.1261,0.1407,0.1401,0.131,0.131,0.131,0.131,0.131,0.131,0.1067,0.1124,0.1178,0.1336,0.1424,0.1576,0.1672,0.1811,0.1964,0.2207,0.2363,0.2501,0.2426,0.1778,0.1319,0.1193,0.1085,0.1056,0.0986,0.109,0.1107,0.1124,0.1108,0.0957,0.0957,0.0904,0.0903,0.0902]}],[{"header":{"parameterUnit":"m.s-1","parameterCategory":2,"la1":30.2991,"la2":30.254,"lo1":-89.0895,"lo2":-89.0444,"dy":0.0017,"dx":0.0017,"nx":28,"ny":28,"refTime":"2023-04-17T21:00:00:Z","depth":"2","parameterNumber":2,"parameterNumberName":"U-component_of_CURRENTS"},"data":[0,0,0,0,0,0,0,0,0,0,0,0,0,0,0,0,0,0,0,0,0,0,0,0,0,0,0,0,0,0,0,0,0,0,0,0,0,0,0,0,0,0,0,0,0,0,0,0,0,0,0,0,0,0,0,0,0,0,0.1457,0.1456,0,0.1417,0.1416,0.1416,0.1494,0.1497,0.1499,0.1502,0.1474,0.1471,0.1468,0,0,0,0,0,0,0,0,0,0,0,0,0,0.1577,0.1575,0.1457,0.1456,0.1456,0.1417,0.1416,0.1416,0.1493,0.1497,0.15,0.1503,0.1475,0.1471,0.1467,0,0,0,0,0,0,0,0,0,0,0,0,0,0.153,0.1574,0.1457,0.149,0.1493,0.1417,0.1416,0.1415,0.1493,0.1497,0.1501,0.1504,0.1476,0.1472,0.1467,0.136,0,0,0.1452,0.145,0,0,0,0,0,0,0,0,0.1532,0.1525,0.1486,0.1488,0.149,0.1464,0.1449,0.1398,0.1492,0.1492,0.1502,0.1506,0.1469,0.1465,0.1449,0.1359,0.1357,0.1452,0.1449,0.1447,0.1446,0,0,0,0,0,0,0,0.1535,0.1527,0.1441,0.1485,0.1488,0.1499,0.1497,0.1439,0.146,0.1493,0.1498,0.1493,0.1471,0.1453,0.1449,0.1357,0.1452,0.1448,0.1445,0.1443,0.1337,0.1337,0,0,0,0,0,0,0.1537,0.153,0.1442,0.144,0.1521,0.1494,0.1491,0.1469,0.146,0.1462,0.149,0.1497,0.1459,0.1454,0.1448,0.1471,0.1447,0.1443,0.144,0.1337,0.1337,0.1337,0,0,0,0,0,0,0.1539,0.1528,0.1444,0.1486,0.1476,0.1488,0.1462,0.1466,0.1501,0.1458,0.1461,0.1527,0.1462,0.1455,0.1447,0.1466,0.1441,0.1436,0.1337,0.1337,0.1337,0.1422,0,0,0,0,0,0,0.1542,0.1529,0.152,0.1485,0.1473,0.1414,0.1458,0.1462,0.1488,0.1498,0.1488,0.1488,0.1464,0.1454,0.1442,0.1459,0.1433,0.1337,0.1337,0.1337,0.1419,0.1425,0.143,0,0,0,0,0,0.1546,0.1491,0.1519,0.1509,0.1457,0.1413,0.1408,0.1431,0.1487,0.1482,0.1502,0.1491,0.1446,0.145,0.1436,0.1452,0.1337,0.1337,0.1337,0.1417,0.1424,0.1429,0,0,0,0,0,0,0.1516,0.1492,0.1523,0.1461,0.1458,0.1428,0.1411,0.1449,0.1459,0.1488,0.1479,0.1476,0.1477,0.1442,0.1447,0.142,0.1392,0.1389,0.1457,0.1463,0.1469,0.1466,0.1429,0,0,0,0,0,0.151,0.1475,0.1468,0.142,0.1421,0.1435,0.1428,0.1455,0.1453,0.1466,0.1475,0.1471,0.1449,0.1447,0.1413,0.1386,0.1385,0.1389,0.1394,0.1399,0.1387,0.1393,0.1399,0.1337,0.1337,0.1337,0,0,0.1477,0.1464,0.1442,0.1415,0.1414,0.1398,0.1441,0.1434,0.1444,0.1453,0.1478,0.1484,0.1445,0.1433,0.1429,0.1418,0.1428,0.1399,0.1404,0.1388,0.1394,0.1401,0.1406,0.1337,0.1337,0.1337,0,0,0.1394,0.1397,0.1356,0.1359,0.1371,0.1378,0.1394,0.141,0.1446,0.1459,0.1481,0.1504,0.1471,0.1458,0.1441,0.1443,0.1453,0.1448,0.1476,0.1484,0.149,0.1495,0.1559,0.1569,0.1455,0.1455,0.1455,0,0.1371,0.1327,0.1336,0.1314,0.1324,0.138,0.137,0.1381,0.1408,0.1441,0.1479,0.149,0.1472,0.1456,0.1478,0.1455,0.1488,0.1463,0.1494,0.1498,0.1502,0.1566,0.1575,0.1459,0.1459,0.1458,0.1458,0,0.127,0.1262,0.1234,0.1242,0.1247,0.1241,0.128,0.1321,0.1398,0.143,0.1477,0.1477,0.1497,0.1498,0.1492,0.151,0.1541,0.1503,0.1486,0.1514,0.158,0.1588,0.1465,0.1464,0.1462,0.1461,0,0,0.1173,0.117,0.1172,0.12,0.1231,0.1228,0.1253,0.1296,0.1349,0.1401,0.1461,0.1457,0.1523,0.1506,0.1521,0.1531,0.1614,0.1548,0.1547,0.1628,0.1697,0.1771,0.1788,0.1603,0.1603,0.1604,0.1756,0,0.1119,0.108,0.1096,0.1101,0.1106,0.118,0.1202,0.1258,0.1332,0.14,0.144,0.1487,0.1504,0.1555,0.157,0.1593,0.1632,0.158,0.1642,0.1645,0.1719,0.1796,0.1403,0.1509,0.1764,0.1766,0.1767,0,0.1048,0.1042,0.1031,0.1092,0.1103,0.1122,0.1226,0.1253,0.1342,0.141,0.1481,0.1527,0.1578,0.1581,0.1653,0.1636,0.1681,0.1694,0.1699,0.1733,0.1732,0.1508,0.1515,0.178,0.1779,0.1778,0.1777,0,0.102,0.1017,0.1024,0.1037,0.1088,0.1134,0.1185,0.1274,0.1325,0.1436,0.1501,0.1564,0.1633,0.1665,0.1755,0.1713,0.1843,0.1773,0.188,0.1888,0.1542,0.1519,0.1814,0.1814,0.1813,0.1813,0.1813,0,0.098,0.0996,0.1024,0.1034,0.1081,0.1133,0.1211,0.128,0.1373,0.1441,0.1523,0.1596,0.166,0.1753,0.1789,0.1911,0.1885,0.191,0.1929,0.157,0.1549,0.1747,0.1737,0.1819,0.1818,0.1816,0.1815,0,0.0968,0.0974,0.0995,0.1048,0.1075,0.1124,0.1226,0.1278,0.1379,0.1474,0.1516,0.1646,0.18,0.1888,0.1977,0.1984,0.2055,0.21,0.1729,0.1703,0.2082,0.2075,0.2205,0.2208,0.2212,0.2214,0.2217,0,0.0959,0.0961,0.1008,0.1028,0.1065,0.1136,0.1189,0.1288,0.1344,0.1504,0.1545,0.1733,0.1867,0.2074,0.2024,0.2117,0.2226,0.1911,0.1736,0.2116,0.2121,0.2108,0.2096,0.1319,0.1314,0.1309,0.1306,0,0.0949,0.0971,0.0985,0.1023,0.1076,0.1124,0.1209,0.1249,0.1373,0.1463,0.161,0.1726,0.1863,0.1799,0.1956,0.1929,0.1858,0.1837,0.2279,0.1323,0.1303,0.1303,0.1314,0.1267,0.1271,0.1274,0.1276,0.1278,0.0954,0.0961,0.0978,0.1018,0.1064,0.1119,0.1163,0.1241,0.1337,0.1445,0.1577,0.1631,0.1574,0.1598,0.1623,0.1592,0.1709,0.1597,0.1598,0.1606,0.1518,0.1509,0.1498,0.1503,0.1507,0.1511,0.1515,0,0.0949,0.0958,0.0973,0.1007,0.1034,0.1097,0.1171,0.1196,0.1293,0.132,0.1438,0.1203,0.1189,0.1235,0.1046,0.11,0.094,0.1146,0.0855,0.0889,0.092,0.0789,0.058,0.058,0.058,0.058,0,0,0.0946,0.0941,0.0938,0.0963,0.1013,0.1075,0.1127,0.1158,0.114,0.1073,0.0992,0.1067,0.1045,0.0763,0.0727,0.0655,0.0774,0.0608,0.1305,0.0981,0.1014,0.1086,0.0914,0,0,0,0,0]},{"header":{"parameterUnit":"m.s-1","parameterCategory":2,"la1":30.2991,"la2":30.254,"lo1":-89.0895,"lo2":-89.0444,"dy":0.0017,"dx":0.0017,"nx":28,"ny":28,"refTime":"2023-04-17T21:00:00:Z","depth":"2","parameterNumber":3,"parameterNumberName":"V-component_of_CURRENTS"},"data":[0,0,0,0,0,0,0,0,0,0,0,0,0,0,0,0,0,0,0,0,0,0,0,0,0,0,0,0,0,0,0,0,0,0,0,0,0,0,0,0,0,0,0,0,0,0,0,0,0,0,0,0,0,0,0,0,0,0,-0.0433,-0.0433,0,-0.0443,-0.0443,-0.0443,-0.0432,-0.0431,-0.0431,-0.043,-0.0508,-0.051,-0.0513,0,0,0,0,0,0,0,0,0,0,0,0,0,-0.0403,-0.0404,-0.0433,-0.0433,-0.0433,-0.0443,-0.0443,-0.0443,-0.0432,-0.0431,-0.043,-0.043,-0.0507,-0.051,-0.0513,0,0,0,0,0,0,0,0,0,0,0,0,0,-0.0417,-0.0404,-0.0433,-0.0427,-0.0426,-0.0443,-0.0443,-0.0444,-0.0432,-0.0431,-0.043,-0.0429,-0.0506,-0.051,-0.0514,-0.0557,0,0,-0.0526,-0.0527,0,0,0,0,0,0,0,0,-0.0416,-0.0418,-0.0428,-0.0427,-0.0427,-0.0433,-0.0461,-0.0484,-0.0432,-0.0432,-0.043,-0.0429,-0.0488,-0.0494,-0.05,-0.056,-0.0564,-0.0526,-0.0528,-0.053,-0.0531,0,0,0,0,0,0,0,-0.0415,-0.0418,-0.0439,-0.0428,-0.0427,-0.0423,-0.0424,-0.0465,-0.0468,-0.0432,-0.0431,-0.0429,-0.0489,-0.0496,-0.0502,-0.0565,-0.0526,-0.0529,-0.0532,-0.0533,-0.0672,-0.0673,0,0,0,0,0,0,-0.0411,-0.0417,-0.0439,-0.0439,-0.0417,-0.0424,-0.0425,-0.0434,-0.0466,-0.0469,-0.043,-0.0428,-0.0489,-0.0497,-0.0504,-0.055,-0.053,-0.0534,-0.0536,-0.067,-0.0672,-0.0673,0,0,0,0,0,0,-0.0411,-0.0414,-0.0438,-0.0426,-0.0428,-0.0425,-0.0435,-0.0435,-0.0432,-0.0463,-0.0468,-0.0426,-0.0489,-0.0499,-0.0539,-0.0553,-0.0536,-0.0539,-0.0669,-0.0671,-0.0673,-0.0647,0,0,0,0,0,0,-0.041,-0.0414,-0.0419,-0.0426,-0.0429,-0.0446,-0.0436,-0.0435,-0.0432,-0.043,-0.0463,-0.0469,-0.0489,-0.0533,-0.0543,-0.0558,-0.0542,-0.0667,-0.067,-0.0672,-0.0646,-0.0648,-0.0649,0,0,0,0,0,-0.0409,-0.0422,-0.0419,-0.0421,-0.0436,-0.0446,-0.0448,-0.0443,-0.0432,-0.0437,-0.0459,-0.0467,-0.0556,-0.0537,-0.0549,-0.0565,-0.0666,-0.0669,-0.0672,-0.0645,-0.0647,-0.0649,0,0,0,0,0,0,-0.0419,-0.0423,-0.0419,-0.0434,-0.0437,-0.0443,-0.0447,-0.0441,-0.046,-0.0458,-0.0483,-0.0493,-0.0531,-0.0559,-0.0538,-0.0615,-0.0613,-0.0619,-0.059,-0.0592,-0.0593,-0.0579,-0.0546,0,0,0,0,0,-0.0422,-0.0429,-0.0432,-0.0444,-0.0445,-0.0444,-0.0446,-0.0441,-0.0457,-0.0462,-0.0482,-0.0516,-0.0555,-0.0579,-0.0613,-0.0661,-0.0661,-0.0681,-0.0683,-0.0684,-0.0682,-0.0715,-0.0718,-0.0683,-0.0683,-0.0683,0,0,-0.0429,-0.0432,-0.0436,-0.0446,-0.0447,-0.0453,-0.0443,-0.0446,-0.0452,-0.0472,-0.0491,-0.0517,-0.0568,-0.0611,-0.0633,-0.0636,-0.0687,-0.0687,-0.0687,-0.0685,-0.0718,-0.0721,-0.0724,-0.0685,-0.0685,-0.0684,0,0,-0.0442,-0.045,-0.0454,-0.0457,-0.0454,-0.0458,-0.0456,-0.0457,-0.0459,-0.0483,-0.05,-0.053,-0.0588,-0.0622,-0.065,-0.0686,-0.0688,-0.0704,-0.0708,-0.0739,-0.0742,-0.0744,-0.0708,-0.0707,-0.0712,-0.0712,-0.0712,0,-0.0448,-0.0454,-0.0458,-0.0461,-0.0459,-0.0459,-0.0459,-0.0472,-0.0485,-0.0491,-0.0487,-0.056,-0.0593,-0.0653,-0.0664,-0.0687,-0.0686,-0.0691,-0.0738,-0.0741,-0.0744,-0.0707,-0.0706,-0.0712,-0.0712,-0.0712,-0.0712,0,-0.0456,-0.0462,-0.0467,-0.047,-0.0473,-0.0475,-0.0484,-0.049,-0.0488,-0.0497,-0.0534,-0.0575,-0.0615,-0.0639,-0.0664,-0.0711,-0.0694,-0.0726,-0.0725,-0.0745,-0.0705,-0.0705,-0.071,-0.0711,-0.0711,-0.0711,0,0,-0.0465,-0.0469,-0.047,-0.0461,-0.0472,-0.0471,-0.0491,-0.0503,-0.0499,-0.0529,-0.053,-0.0607,-0.0613,-0.0647,-0.0681,-0.0716,-0.0719,-0.0731,-0.0734,-0.0677,-0.0741,-0.0607,-0.0593,-0.0765,-0.0766,-0.0767,-0.0688,0,-0.0464,-0.0461,-0.047,-0.0468,-0.0461,-0.0471,-0.0483,-0.0496,-0.0505,-0.0509,-0.0559,-0.0577,-0.0625,-0.063,-0.0679,-0.0705,-0.0726,-0.0734,-0.0746,-0.0745,-0.0609,-0.0592,-0.0629,-0.0552,-0.0688,-0.0688,-0.0688,0,-0.046,-0.0455,-0.0451,-0.0442,-0.044,-0.0446,-0.0443,-0.0452,-0.0477,-0.0479,-0.0517,-0.0542,-0.0591,-0.0624,-0.0686,-0.069,-0.0716,-0.0737,-0.0736,-0.0622,-0.0612,-0.0566,-0.0547,-0.0688,-0.0688,-0.0688,-0.0688,0,-0.0434,-0.0438,-0.0428,-0.0428,-0.0428,-0.0428,-0.0427,-0.0443,-0.0431,-0.0453,-0.0431,-0.0508,-0.0507,-0.0585,-0.0624,-0.066,-0.0664,-0.0718,-0.0618,-0.0606,-0.0644,-0.0633,-0.0767,-0.0767,-0.0767,-0.0768,-0.0768,0,-0.0413,-0.0407,-0.0414,-0.0405,-0.0385,-0.0396,-0.0374,-0.0382,-0.0376,-0.0342,-0.0409,-0.0373,-0.0504,-0.0519,-0.0589,-0.0566,-0.0636,-0.0594,-0.0583,-0.0628,-0.0618,-0.0759,-0.0759,-0.0765,-0.0765,-0.0766,-0.0766,0,-0.0374,-0.0388,-0.0372,-0.0372,-0.0371,-0.035,-0.0325,-0.0297,-0.0301,-0.0252,-0.0249,-0.0266,-0.0256,-0.0351,-0.0428,-0.0471,-0.0497,-0.0482,-0.0478,-0.0466,-0.0424,-0.0424,-0.0353,-0.0347,-0.0343,-0.0339,-0.0336,0,-0.0346,-0.0336,-0.0336,-0.0319,-0.0317,-0.0292,-0.0262,-0.026,-0.0216,-0.0162,-0.0116,-0.0095,0.0007,-0.0015,-0.0152,-0.0204,-0.0322,-0.0277,-0.0358,-0.0387,-0.0385,-0.0392,-0.0398,-0.0393,-0.0391,-0.0389,-0.0387,0,-0.0277,-0.0288,-0.0271,-0.0247,-0.0221,-0.0178,-0.0133,-0.0082,-0.0053,0.0031,0.0165,0.0266,0.0249,0.0205,0.0118,0.0041,-0.0271,-0.0228,-0.03,-0.0465,-0.0413,-0.0413,-0.0422,-0.037,-0.0371,-0.0373,-0.0374,-0.0374,-0.0218,-0.0189,-0.0176,-0.0151,-0.0122,-0.0046,0.0022,0.0113,0.0243,0.045,0.0478,0.0633,0.0413,0.0378,0.0236,0.0008,-0.0005,-0.0144,-0.0158,-0.0172,-0.0164,-0.0104,0.0002,0.0003,0.0003,0.0003,0.0004,0,-0.0125,-0.0108,-0.0073,-0.0031,0.0022,0.0001,0.0124,0.0269,0.048,0.0664,0.089,0.0748,0.0725,0.0452,0.0158,0.0049,-0.0047,-0.0023,-0.0188,-0.0203,-0.0217,-0.0219,-0.0064,-0.0064,-0.0064,-0.0064,0,0,-0.0065,-0.0012,-0.0,0.0097,0.0112,0.0212,0.0292,0.0556,0.0717,0.098,0.1024,0.1199,0.0758,0.0522,0.0285,0.0107,0.0007,0.0093,0.0154,-0.0026,-0.0037,-0.0287,-0.0304,0,0,0,0,0]}],[{"header":{"parameterUnit":"m.s-1","parameterCategory":2,"la1":30.2991,"la2":30.254,"lo1":-89.0895,"lo2":-89.0444,"dy":0.0017,"dx":0.0017,"nx":28,"ny":28,"refTime":"2023-04-17T21:00:00:Z","depth":"4","parameterNumber":2,"parameterNumberName":"U-component_of_CURRENTS"},"data":[0,0,0,0,0,0,0,0,0,0,0,0,0,0,0,0,0,0,0,0,0,0,0,0,0,0,0,0,0,0,0,0,0,0,0,0,0,0,0,0,0,0,0,0,0,0,0,0,0,0,0,0,0,0,0,0,0,0,-0.0319,-0.0319,0,-0.0281,-0.028,-0.028,-0.0197,-0.0195,-0.0194,-0.0192,-0.0049,-0.0046,-0.0044,0,0,0,0,0,0,0,0,0,0,0,0,0,-0.0278,-0.0279,-0.0319,-0.0319,-0.0318,-0.0281,-0.028,-0.0279,-0.0197,-0.0195,-0.0194,-0.0192,-0.0049,-0.0046,-0.0044,0,0,0,0,0,0,0,0,0,0,0,0,0,-0.0272,-0.028,-0.0319,-0.0274,-0.027,-0.0281,-0.028,-0.0279,-0.0198,-0.0195,-0.0193,-0.0191,-0.005,-0.0047,-0.0043,-0.0065,0,0,-0.0032,-0.003,0,0,0,0,0,0,0,0,-0.0272,-0.0273,-0.0281,-0.0277,-0.0273,-0.0243,-0.0213,-0.0203,-0.0198,-0.0223,-0.0192,-0.019,-0.0107,-0.0098,-0.0095,-0.0058,-0.0052,-0.0032,-0.0029,-0.0028,-0.0027,0,0,0,0,0,0,0,-0.0273,-0.0274,-0.0302,-0.0281,-0.0276,-0.0242,-0.0238,-0.0211,-0.0174,-0.0221,-0.0215,-0.0215,-0.0103,-0.0099,-0.009,-0.005,-0.0032,-0.0028,-0.0026,-0.0025,0.0153,0.0156,0,0,0,0,0,0,-0.0287,-0.0275,-0.0303,-0.0301,-0.0269,-0.0245,-0.0241,-0.0253,-0.0177,-0.0164,-0.0217,-0.0211,-0.0106,-0.0095,-0.0085,0.0053,-0.0028,-0.0024,-0.0022,0.0151,0.0154,0.0157,0,0,0,0,0,0,-0.0286,-0.029,-0.0305,-0.0287,-0.0287,-0.0248,-0.0262,-0.0254,-0.0177,-0.0175,-0.016,-0.0141,-0.0104,-0.009,0.0005,0.0054,-0.0023,-0.0019,0.0148,0.0152,0.0155,0.0228,0,0,0,0,0,0,-0.0286,-0.0291,-0.0283,-0.0289,-0.0289,-0.0264,-0.0264,-0.0255,-0.0187,-0.0176,-0.0107,-0.0096,-0.0101,-0.0001,0.0008,0.0057,-0.0017,0.0145,0.015,0.0154,0.0222,0.0234,0.0243,0,0,0,0,0,-0.0284,-0.0292,-0.0283,-0.0285,-0.0287,-0.0263,-0.0257,-0.0221,-0.0184,-0.0143,-0.0089,-0.0094,0.0036,0.0005,0.0015,0.0066,0.0142,0.0148,0.0154,0.0217,0.0231,0.0243,0,0,0,0,0,0,-0.0268,-0.0285,-0.0275,-0.0286,-0.0252,-0.0248,-0.0215,-0.018,-0.0108,-0.0073,-0.006,-0.0045,0.0054,0.0055,0.002,0.0132,0.0087,0.0095,0.0132,0.0146,0.0156,0.0172,-0.0013,0,0,0,0,0,-0.0266,-0.0271,-0.0267,-0.0264,-0.0245,-0.0212,-0.0187,-0.0149,-0.0104,-0.0066,-0.0016,0.0035,0.007,0.0109,0.0143,0.0207,0.0203,0.0247,0.0258,0.0267,0.0288,0.0311,0.0325,0.0175,0.0175,0.0175,0,0,-0.0261,-0.0268,-0.027,-0.0259,-0.0231,-0.019,-0.0188,-0.0123,-0.0057,-0.0064,0.0065,0.0085,0.0099,0.0169,0.0212,0.0186,0.0309,0.0274,0.0281,0.0298,0.0318,0.0333,0.0345,0.0179,0.0179,0.0178,0,0,-0.0252,-0.025,-0.0242,-0.0212,-0.0159,-0.0133,-0.0094,-0.0034,0.0032,0.0131,0.0141,0.0204,0.0273,0.0286,0.0295,0.0391,0.0366,0.0402,0.0468,0.049,0.0502,0.0513,0.0527,0.0538,0.0404,0.0404,0.0404,0,-0.0232,-0.0231,-0.0226,-0.0198,-0.0149,-0.0094,-0.003,0.0024,0.0121,0.0187,0.0196,0.031,0.0325,0.0389,0.0414,0.0416,0.0418,0.0413,0.0503,0.0513,0.0522,0.0534,0.0545,0.0408,0.0408,0.0408,0.0407,0,-0.0215,-0.0192,-0.0174,-0.0121,-0.0063,0.0002,0.0076,0.0173,0.0262,0.0312,0.0438,0.0451,0.0514,0.0519,0.0493,0.0569,0.0545,0.0512,0.0464,0.0541,0.0549,0.056,0.0414,0.0413,0.0412,0.0411,0,0,-0.0218,-0.0171,-0.0159,-0.0102,-0.0002,0.0053,0.0178,0.0301,0.0402,0.049,0.0605,0.0649,0.0664,0.0676,0.0655,0.0668,0.0724,0.0622,0.0621,0.0626,0.0772,0.0553,0.0543,0.07,0.0702,0.0704,0.075,0,-0.0184,-0.0137,-0.0095,0.0022,0.0071,0.0181,0.0289,0.0415,0.0521,0.064,0.0679,0.0767,0.0718,0.0751,0.076,0.0736,0.0756,0.0715,0.0707,0.0707,0.0493,0.0549,0.0711,0.0757,0.076,0.0762,0.0763,0,-0.0163,-0.0134,-0.0037,0.0104,0.0147,0.026,0.0473,0.057,0.0722,0.0795,0.0879,0.0902,0.0953,0.0892,0.0907,0.0881,0.0848,0.0817,0.0817,0.0595,0.0506,0.0666,0.0781,0.078,0.0778,0.0777,0.0776,0,-0.017,-0.0071,0.002,0.0063,0.0215,0.0353,0.0477,0.0648,0.0741,0.0904,0.0963,0.1034,0.1065,0.105,0.0954,0.096,0.0931,0.0934,0.0715,0.07,0.0851,0.0839,0.0961,0.0961,0.0961,0.0961,0.0961,0,-0.0143,-0.0077,0.0043,0.0094,0.0268,0.0387,0.0592,0.0716,0.0863,0.0918,0.1041,0.1004,0.1103,0.1068,0.1003,0.0851,0.0971,0.0739,0.0697,0.0881,0.0873,0.0858,0.0846,0.0962,0.0962,0.0962,0.0961,0,-0.016,-0.0099,-0.0004,0.0175,0.0269,0.0401,0.0649,0.0742,0.0897,0.0967,0.1011,0.104,0.0924,0.096,0.091,0.0882,0.0781,0.0693,0.0878,0.0843,0.0549,0.0541,0.0537,0.053,0.0523,0.0518,0.0514,0,-0.0166,-0.0128,0.0038,0.0128,0.0247,0.0448,0.0569,0.0755,0.0798,0.0867,0.0835,0.0813,0.078,0.0611,0.0584,0.0531,0.0487,0.0571,0.0593,0.0547,0.0507,0.0508,0.0508,0.0504,0.0502,0.0501,0.0499,0,-0.0189,-0.0136,-0.0066,0.0096,0.026,0.0382,0.0549,0.0566,0.0683,0.082,0.0692,0.0652,0.05,0.0416,0.0403,0.032,0.0613,0.0506,0.0521,0.0543,0.0506,0.0473,0.0481,0.0477,0.048,0.0482,0.0484,0,-0.0209,-0.0185,-0.0096,0.0066,0.0221,0.0282,0.0379,0.042,0.0489,0.0589,0.0453,0.0387,0.0407,0.028,0.0172,0.0167,0.0176,0.0313,0.0339,0.0363,0.0266,0.0192,0.0038,0,0,0,0,0,-0.0222,-0.0209,-0.0116,0.0022,0.0151,0.0241,0.0337,0.0389,0.0467,0.0386,0.0467,0.0289,0.0177,0.007,0.0015,-0.0013,0.0134,-0.0074,0.0297,0.0357,0.0382,0.0273,0,0,0,0,0,0,-0.0238,-0.0185,-0.0167,-0.0054,0.0034,0.0141,0.0183,0.0221,0.0181,0.0269,0.0163,0.031,0.0129,0.0198,0.0013,0.0001,0.0244,-0.0089,-0.0089,0.0343,0.0366,0.0386,0.0282,0,0,0,0,0]},{"header":{"parameterUnit":"m.s-1","parameterCategory":2,"la1":30.2991,"la2":30.254,"lo1":-89.0895,"lo2":-89.0444,"dy":0.0017,"dx":0.0017,"nx":28,"ny":28,"refTime":"2023-04-17T21:00:00:Z","depth":"4","parameterNumber":3,"parameterNumberName":"V-component_of_CURRENTS"},"data":[0,0,0,0,0,0,0,0,0,0,0,0,0,0,0,0,0,0,0,0,0,0,0,0,0,0,0,0,0,0,0,0,0,0,0,0,0,0,0,0,0,0,0,0,0,0,0,0,0,0,0,0,0,0,0,0,0,0,0.0809,0.0807,0,0.0763,0.0764,0.0765,0.0861,0.0863,0.0864,0.0866,0.0813,0.081,0.0807,0,0,0,0,0,0,0,0,0,0,0,0,0,0.0778,0.0781,0.0809,0.0807,0.0805,0.0763,0.0764,0.0765,0.0861,0.0863,0.0865,0.0866,0.0814,0.081,0.0807,0,0,0,0,0,0,0,0,0,0,0,0,0,0.0785,0.0782,0.081,0.0835,0.0836,0.0763,0.0764,0.0766,0.0861,0.0863,0.0865,0.0867,0.0815,0.0811,0.0806,0.0734,0,0,0.0793,0.0792,0,0,0,0,0,0,0,0,0.0785,0.0789,0.0833,0.0833,0.0833,0.0805,0.0733,0.0749,0.086,0.0869,0.0866,0.0868,0.0796,0.0794,0.0805,0.0732,0.0729,0.0793,0.079,0.0789,0.0787,0,0,0,0,0,0,0,0.0785,0.079,0.0809,0.083,0.083,0.0778,0.0786,0.0737,0.0834,0.0869,0.0871,0.0838,0.0799,0.0809,0.0804,0.0729,0.0793,0.0789,0.0787,0.0785,0.0592,0.0589,0,0,0,0,0,0,0.0764,0.0791,0.081,0.0806,0.0795,0.0776,0.0785,0.0826,0.0835,0.0833,0.0836,0.0842,0.0815,0.0809,0.0802,0.0721,0.0789,0.0785,0.0782,0.0594,0.0591,0.0588,0,0,0,0,0,0,0.0765,0.0769,0.0812,0.0778,0.0778,0.0774,0.0819,0.0824,0.0874,0.0806,0.0809,0.0884,0.0817,0.0808,0.0769,0.0719,0.0783,0.0779,0.0597,0.0593,0.059,0.0554,0,0,0,0,0,0,0.0766,0.0772,0.0788,0.078,0.0778,0.0819,0.0815,0.082,0.0838,0.0848,0.0846,0.0842,0.0818,0.0775,0.0764,0.0715,0.0776,0.06,0.0595,0.0591,0.0559,0.055,0.0542,0,0,0,0,0,0.0766,0.0769,0.0792,0.0791,0.0807,0.0818,0.0818,0.0829,0.0838,0.0882,0.0843,0.0845,0.0736,0.077,0.0758,0.0706,0.0603,0.0597,0.0591,0.0562,0.0551,0.0542,0,0,0,0,0,0,0.0762,0.0777,0.0802,0.0814,0.0838,0.083,0.0848,0.0846,0.0854,0.0854,0.082,0.0812,0.0752,0.0733,0.0772,0.0632,0.0665,0.0657,0.0647,0.0636,0.0628,0.0667,0.0772,0,0,0,0,0,0.0765,0.0803,0.0802,0.0832,0.085,0.0861,0.086,0.0863,0.0852,0.0865,0.0818,0.0765,0.0709,0.0685,0.0634,0.0565,0.0571,0.0519,0.0511,0.0504,0.0525,0.0481,0.0472,0.0569,0.0569,0.0569,0,0,0.0772,0.0783,0.0806,0.0835,0.0871,0.0876,0.0878,0.0895,0.0873,0.0845,0.0799,0.0739,0.0686,0.0604,0.0574,0.059,0.0475,0.0497,0.0492,0.0516,0.0474,0.0466,0.0458,0.0565,0.0566,0.0566,0,0,0.0787,0.0839,0.0866,0.0888,0.0903,0.09,0.0914,0.0894,0.0887,0.0814,0.0774,0.0702,0.0603,0.0552,0.0518,0.0435,0.0435,0.0396,0.0382,0.0338,0.0331,0.0325,0.0314,0.0308,0.0389,0.0389,0.0389,0,0.0781,0.0829,0.0873,0.0894,0.0902,0.092,0.0934,0.0916,0.0857,0.0824,0.0799,0.0629,0.058,0.0496,0.0449,0.0419,0.0404,0.0429,0.0331,0.0325,0.032,0.031,0.0303,0.0387,0.0387,0.0387,0.0387,0,0.08,0.0844,0.0874,0.092,0.0938,0.0961,0.0936,0.0913,0.0865,0.0806,0.0701,0.0605,0.0513,0.0458,0.0421,0.0336,0.0341,0.0331,0.0369,0.0309,0.0301,0.0295,0.0383,0.0384,0.0385,0.0385,0,0,0.078,0.0864,0.0882,0.0921,0.0951,0.0972,0.0944,0.0917,0.089,0.0773,0.071,0.0564,0.0501,0.0457,0.0385,0.0329,0.0252,0.0301,0.03,0.0313,0.0171,0.0179,0.0173,0.0217,0.0215,0.0214,0.0181,0,0.0791,0.0827,0.0869,0.0926,0.0947,0.0974,0.095,0.0914,0.0856,0.078,0.0672,0.0579,0.0506,0.0441,0.0368,0.0281,0.0233,0.0264,0.0209,0.0209,0.024,0.0165,0.021,0.0177,0.0175,0.0174,0.0173,0,0.0779,0.0809,0.0861,0.0927,0.0949,0.0983,0.0988,0.0953,0.0867,0.0808,0.0705,0.0617,0.0495,0.0446,0.0294,0.031,0.0241,0.0183,0.0181,0.0205,0.0204,0.0246,0.0162,0.0163,0.0164,0.0165,0.0165,0,0.0742,0.0804,0.0857,0.0884,0.0945,0.0989,0.1004,0.096,0.0942,0.0832,0.0797,0.0641,0.0561,0.0443,0.0294,0.0286,0.0151,0.0137,0.0094,0.0096,0.0122,0.0129,0.0056,0.0056,0.0057,0.0057,0.0057,0,0.0717,0.0765,0.0857,0.0913,0.0955,0.0987,0.1026,0.1002,0.0969,0.0916,0.0813,0.069,0.055,0.0438,0.0315,0.018,0.0169,0.0092,0.0078,0.0104,0.011,0.0117,0.0125,0.0055,0.0056,0.0056,0.0056,0,0.0666,0.0741,0.0807,0.0915,0.0966,0.0981,0.1089,0.1083,0.1051,0.0985,0.0951,0.0754,0.0561,0.0472,0.0275,0.0221,0.0092,0.0059,0.0119,0.011,0.0068,0.0074,0.0012,0.0012,0.0011,0.0011,0.0011,0,0.0634,0.0669,0.0826,0.0889,0.0972,0.1029,0.1078,0.1108,0.1084,0.0952,0.0886,0.0726,0.0575,0.0312,0.02,0.0075,0.0049,0.0049,0.003,0.0066,0.0059,0.0065,0.007,0.0011,0.0011,0.0011,0.0011,0,0.058,0.0665,0.0735,0.0856,0.0968,0.1034,0.1093,0.104,0.0999,0.1063,0.0772,0.0615,0.0423,0.0209,0.018,0.005,0.0079,0.0046,0.0045,0.0027,0.0064,0.0058,0.0064,0.001,0.001,0.001,0.001,0,0.0545,0.0556,0.0698,0.0782,0.0926,0.0949,0.0966,0.0915,0.0895,0.0775,0.0636,0.0432,0.0353,0.0189,0.0083,0.0053,0.0025,0.003,0.0029,0.003,0.0049,0.0099,0.0037,0,0,0,0,0,0.0503,0.054,0.0617,0.0717,0.0855,0.0954,0.0957,0.0938,0.089,0.0705,0.0685,0.0476,0.0273,0.0114,0.0075,0.008,0.0037,0.0039,0.0047,0.0007,0.0007,0.0028,0,0,0,0,0,0,0.0485,0.0566,0.0587,0.0679,0.0742,0.0869,0.0847,0.0796,0.0656,0.0601,0.0449,0.0539,0.0304,0.0337,0.0103,0.0091,0.0098,-0.0,-0.0,0.0006,0.0007,0.0007,0.0029,0,0,0,0,0]}]]